Location: Newark
(47.5000°N, 4.6167°E)
Time: 09:07:18
(UTC+00:00)

ISS - Pass Details

Date: 08 December 2021
Orbit: 413 x 422 km, 51.6° (Epoch: 27 January)

Event Time Altitude Azimuth Distance (km) Brightness Sun altitude
Rises 16:50:08 0° 291° (WNW) 2,388 0.8 -9.7°
Reaches altitude 10° 16:52:21 10° 282° (WNW) 1,517 0.0 -10.0°
Maximum altitude 16:55:27 33° 217° (SW) 729 -1.9 -10.5°
Drops below altitude 10° 16:58:32 10° 151° (SSE) 1,503 -1.0 -11.0°
Enters shadow 17:02:46 -6° 137° (SE) 3,178 0.5 -11.6°
